TimeEST,TemperatureF,Dew PointF,Humidity,Sea Level PressureIn,VisibilityMPH,Wind Direction,Wind SpeedMPH,Gust SpeedMPH,PrecipitationIn,Events,Conditions,WindDirDegrees,DateUTC
12:53 AM,63.0,59.0,87,30.18,8.0,Calm,Calm,-,0.01,Rain,Light Rain,0,2013-01-19 05:53:00
1:53 AM,63.0,60.1,90,30.16,10.0,WNW,4.6,-,0.00,,Overcast,300,2013-01-19 06:53:00
2:53 AM,63.0,60.1,90,30.15,10.0,Calm,Calm,-,0.00,,Overcast,0,2013-01-19 07:53:00
3:53 AM,63.0,60.1,90,30.15,7.0,WNW,4.6,-,0.00,Rain,Light Rain,290,2013-01-19 08:53:00
4:53 AM,62.1,60.1,93,30.16,6.0,West,6.9,-,0.07,Rain,Light Rain,260,2013-01-19 09:53:00
5:53 AM,61.0,60.1,97,30.17,6.0,West,6.9,-,0.02,Rain,Light Rain,280,2013-01-19 10:53:00
6:31 AM,62.6,60.8,94,30.17,4.0,West,4.6,-,0.03,Rain,Light Rain,280,2013-01-19 11:31:00
6:53 AM,62.1,61.0,96,30.18,4.0,West,5.8,-,0.05,Rain,Light Rain,280,2013-01-19 11:53:00
7:05 AM,62.6,60.8,94,30.18,2.0,West,5.8,-,0.03,Rain,Light Rain,280,2013-01-19 12:05:00
7:38 AM,62.6,62.6,100,30.18,3.0,North,5.8,-,0.05,Rain,Light Rain,350,2013-01-19 12:38:00
7:53 AM,63.0,63.0,100,30.18,4.0,NNW,4.6,-,0.06,Rain,Light Rain,340,2013-01-19 12:53:00
8:13 AM,62.6,62.6,100,30.20,5.0,NNW,3.5,-,N/A,,Overcast,330,2013-01-19 13:13:00
8:53 AM,64.9,64.0,97,30.21,5.0,North,5.8,-,N/A,,Overcast,360,2013-01-19 13:53:00
9:03 AM,64.4,64.4,100,30.21,5.0,North,6.9,-,N/A,,Mostly Cloudy,360,2013-01-19 14:03:00
9:53 AM,68.7,63.0,82,30.22,10.0,North,8.1,-,N/A,,Mostly Cloudy,350,2013-01-19 14:53:00
10:53 AM,70.0,64.0,81,30.22,10.0,Variable,5.8,-,N/A,,Mostly Cloudy,0,2013-01-19 15:53:00
11:53 AM,72.0,64.0,76,30.19,10.0,Variable,3.5,-,N/A,,Overcast,0,2013-01-19 16:53:00
12:53 PM,73.0,64.9,76,30.16,10.0,Variable,3.5,-,N/A,,Overcast,0,2013-01-19 17:53:00
1:53 PM,73.9,64.0,71,30.13,10.0,Calm,Calm,-,N/A,,Mostly Cloudy,0,2013-01-19 18:53:00
2:21 PM,75.2,62.6,65,30.11,10.0,Calm,Calm,-,N/A,,Mostly Cloudy,0,2013-01-19 19:21:00
2:39 PM,75.2,64.4,69,30.11,10.0,NE,4.6,-,N/A,,Mostly Cloudy,40,2013-01-19 19:39:00
2:53 PM,75.0,64.0,69,30.11,10.0,Calm,Calm,-,N/A,,Mostly Cloudy,0,2013-01-19 19:53:00
3:53 PM,73.9,64.9,73,30.11,10.0,NE,4.6,-,N/A,,Mostly Cloudy,40,2013-01-19 20:53:00
4:53 PM,73.0,64.0,73,30.11,10.0,NE,8.1,-,N/A,,Mostly Cloudy,50,2013-01-19 21:53:00
5:53 PM,73.0,64.0,73,30.11,10.0,Calm,Calm,-,N/A,,Mostly Cloudy,0,2013-01-19 22:53:00
6:53 PM,72.0,64.9,78,30.13,10.0,NNE,4.6,-,N/A,,Mostly Cloudy,30,2013-01-19 23:53:00
7:53 PM,71.1,64.9,81,30.14,10.0,NE,3.5,-,N/A,,Mostly Cloudy,40,2013-01-20 00:53:00
8:53 PM,70.0,64.0,81,30.15,10.0,Calm,Calm,-,N/A,,Scattered Clouds,0,2013-01-20 01:53:00
9:53 PM,70.0,64.9,84,30.14,10.0,Calm,Calm,-,N/A,,Partly Cloudy,0,2013-01-20 02:53:00
10:53 PM,68.0,64.9,90,30.13,10.0,Calm,Calm,-,N/A,,Clear,0,2013-01-20 03:53:00
11:53 PM,66.9,64.9,93,30.12,10.0,Calm,Calm,-,N/A,,Partly Cloudy,0,2013-01-20 04:53:00